軌道要素
Epoch 2015 Sept. 15.0 TT = JDT 2457280.5
T 2015 Sept. 22.68395 TT MPCW
q 2.2691071 (2000.0) P Q
n 0.17272607 Peri. 269.80610 -0.59229948 +0.75976278
a 3.1932343 Node 319.61986 -0.46949376 -0.59598846
e 0.2894016 Incl. 24.45708 -0.65479534 -0.25991974
P 5.71
From 39 observations 2016 Aug. 1-12, mean residual 0".4.
|